"Pseudo-MPEC" for P10YaJb

Created 2020 Mar 28 0:07:14 UT using Find_Orb

Click here for an explanation of pseudo-MPECs

 
 Astrometry: 
     P10YaJb  C2020 03 24e`(G2_f\ov[Z,)S[hW*4n%\Astrometry`#oCWfuvM$C9=c?SXp4F51
     P10YaJb  C2020 03 24lrE]`WANKF0e#%/Zl*0sbredacted;SfYp+gNUUtWMtogQ6V7Lu:F51
     P10YaJb  C2020 03 24,*Oxi_K+clickm7?cB`lx;f/C:X0herekoL!,Sw_[O7$5forb0\yF51
     P10YaJb  C2020 03 24)Eui7s^X]'r;8d?JKKdx!icfKIK8leQtHXGJ?\Cexplanation^-F51
     P10YaJb  C2020 03 24.98930 12 46 13.92 +08 49 18.0    ~3P0b 22.2 VVNEOCP033
     P10YaJb  C2020 03 24.99289 12 46 13.68 +08 49 19.8    ~3P0b 21.9 VVNEOCP033
     P10YaJb  C2020 03 24.99647 12 46 13.46 +08 49 21.8    ~3P0b 21.7 VVNEOCP033
     P10YaJb  C2020 03 25.30069 12 45 53.23 +08 51 31.3    ~3P8M 20.9 GVNEOCPI52
     P10YaJb  C2020 03 25.33084 12 45 51.13 +08 51 44.8    ~3P8M       VNEOCPI52
     P10YaJb  C2020 03 27.90715 12 42 58.86 +09 08 23.7    ~3RMb 21.4 VVNEOCP033
     P10YaJb  C2020 03 27.91073 12 42 58.63 +09 08 25.0    ~3RMb 21.1 VVNEOCP033
     P10YaJb  C2020 03 27.91431 12 42 58.36 +09 08 26.6    ~3RMb 21.3 VVNEOCP033

Station data:
(033) Karl Schwarzschild Observatory, Tautenburg  (N50.980140 E11.711240)
   Germany. 1.3-m Schmidt.
(F51) Pan-STARRS 1, Haleakala  (N20.707235 W156.255910)  US/Hawaii.
   Observers N. Primak, A. Schultz, S. Watters, J. Thiel, T. Goggia. Measurer
   PS1 Science Consortium. 1.8-m Ritchey-Chrétien + CCD.
(I52) Steward Observatory, Mt. Lemmon Station  (N32.442547 W110.788920)
   US/Arizona.  Observers T. A. Pruyne, B. M. Africano, E. J. Christensen, G.
   A. Farneth, D. C. Fuls, A. R. Gibbs, A. D. Grauer, H. Gröller, J. A.
   Johnson, R. A. Kowalski, S. M. Larson, G. J. Leonard, D. Rankin, R. L.
   Seaman, F. C. Shelly. 1.0-m reflector + CCD.

Orbital elements:  P10YaJb
   Perihelion 2019 Nov 19.612022 +/- 3.86 TT = 14:41:18 (JD 2458807.112022)
Epoch 2020 Mar 27.0 TT = JDT 2458935.5   Earth MOID: 0.4061   AutoNEOCP
M  47.28014690 +/- 0.8              (J2000 ecliptic)
n   0.36825992 +/- 0.00796          Peri.    2.05870 +/- 1.3
a   1.92767172 +/- 0.0278           Node   107.90567 +/- 0.9
e   0.2791700 +/- 0.0105            Incl.    5.23655 +/- 0.10
P   2.68/977.55d           H 20.9   G  0.15   U  9.5  
q 1.38952349 +/- 0.0166    Q 2.46581995 +/- 0.0507
From 12 observations 2020 Mar. 24-27; mean residual 0".34
Residuals in arcseconds: 
200324 F51  .08+  .09+    200324 033  .75-  .55-    200325 I52  .85+  .70+    
200324 F51  .10+  .07+    200324 033  .56-  .25-    200327 033  .11-  .09-    
200324 F51  .11+  .04-    200324 033  .08-  .25+    200327 033  .19+  .11-    
200324 F51  .27+  .03+    200325 I52  .06-  .31-    200327 033  .11-  .17+    

Ephemerides (geocentric):
Date (UTC) HH   RA              Dec         delta   r     elong  mag " sig PA
---- -- -- --  -------------   -----------  ------ ------ -----  --- ---- ---
2020 03 28 00  12 42 52.430   +09 09 06.34  .68467 1.6728 167.3 21.7 .232 138
2020 03 28 01  12 42 49.653   +09 09 21.46  .68482 1.6730 167.3 21.7 .208 133
2020 03 28 02  12 42 46.877   +09 09 36.55  .68496 1.6731 167.3 21.7 .185 127
2020 03 28 03  12 42 44.101   +09 09 51.61  .68511 1.6733 167.3 21.7 .165 119
2020 03 28 04  12 42 41.326   +09 10 06.64  .68525 1.6734 167.3 21.7 .147 109
2020 03 28 05  12 42 38.551   +09 10 21.63  .68539 1.6736 167.3 21.7 .135  96
2020 03 28 06  12 42 35.777   +09 10 36.59  .68554 1.6737 167.3 21.7 .131  81
2020 03 28 07  12 42 33.004   +09 10 51.51  .68569 1.6739 167.2 21.7 .135  66
2020 03 28 08  12 42 30.231   +09 11 06.40  .68583 1.6740 167.2 21.7 .148  53
2020 03 28 09  12 42 27.459   +09 11 21.25  .68598 1.6742 167.2 21.7 .168  42
2020 03 28 10  12 42 24.688   +09 11 36.08  .68612 1.6743 167.2 21.7 .194  33
2020 03 28 11  12 42 21.917   +09 11 50.86  .68627 1.6744 167.2 21.7 .223  26
2020 03 28 12  12 42 19.147   +09 12 05.62  .68642 1.6746 167.2 21.7 .256  21
2020 03 28 13  12 42 16.378   +09 12 20.34  .68657 1.6747 167.2 21.7 .291  17
2020 03 28 14  12 42 13.609   +09 12 35.02  .68671 1.6749 167.2 21.7 .328  14
2020 03 28 15  12 42 10.841   +09 12 49.67  .68686 1.6750 167.2 21.7 .366  11
2020 03 28 16  12 42 08.074   +09 13 04.29  .68701 1.6752 167.2 21.7 .406   9
2020 03 28 17  12 42 05.308   +09 13 18.87  .68716 1.6753 167.2 21.7 .447   7
2020 03 28 18  12 42 02.542   +09 13 33.42  .68731 1.6755 167.2 21.7 .489   5
2020 03 28 19  12 41 59.777   +09 13 47.94  .68746 1.6756 167.2 21.7 .532   4
2020 03 28 20  12 41 57.013   +09 14 02.42  .68761 1.6758 167.1 21.7 .576   2
2020 03 28 21  12 41 54.249   +09 14 16.86  .68776 1.6759 167.1 21.7 .622   1
2020 03 28 22  12 41 51.487   +09 14 31.27  .68791 1.6761 167.1 21.7 .668   0
2020 03 28 23  12 41 48.725   +09 14 45.65  .68806 1.6762 167.1 21.7 .715   0
2020 03 29 00  12 41 45.964   +09 14 59.99  .68821 1.6763 167.1 21.7 .764 179
2020 03 29 01  12 41 43.204   +09 15 14.30  .68837 1.6765 167.1 21.7 .813 178
2020 03 29 02  12 41 40.444   +09 15 28.57  .68852 1.6766 167.1 21.7 .863 177
2020 03 29 03  12 41 37.686   +09 15 42.81  .68867 1.6768 167.1 21.7 .914 177
2020 03 29 04  12 41 34.928   +09 15 57.01  .68882 1.6769 167.1 21.7 .966 176
2020 03 29 05  12 41 32.171   +09 16 11.18  .68898 1.6771 167.1 21.7 1.02 176
2020 03 29 06  12 41 29.415   +09 16 25.32  .68913 1.6772 167.0 21.7 1.07 175
2020 03 29 07  12 41 26.660   +09 16 39.42  .68928 1.6774 167.0 21.7 1.13 175
2020 03 29 08  12 41 23.906   +09 16 53.48  .68944 1.6775 167.0 21.7 1.18 174
2020 03 29 09  12 41 21.153   +09 17 07.51  .68959 1.6777 167.0 21.7 1.24 174
2020 03 29 10  12 41 18.400   +09 17 21.51  .68975 1.6778 167.0 21.7 1.30 174
2020 03 29 11  12 41 15.649   +09 17 35.47  .68990 1.6780 167.0 21.7 1.35 173
2020 03 29 12  12 41 12.898   +09 17 49.39  .69006 1.6781 167.0 21.7 1.41 173
2020 03 29 13  12 41 10.148   +09 18 03.28  .69022 1.6783 167.0 21.7 1.47 173
2020 03 29 14  12 41 07.400   +09 18 17.14  .69037 1.6784 167.0 21.7 1.53 172
2020 03 29 15  12 41 04.652   +09 18 30.96  .69053 1.6785 166.9 21.7 1.60 172
2020 03 29 16  12 41 01.905   +09 18 44.74  .69069 1.6787 166.9 21.7 1.66 172
2020 03 29 17  12 40 59.159   +09 18 58.49  .69084 1.6788 166.9 21.8 1.72 171
2020 03 29 18  12 40 56.414   +09 19 12.21  .69100 1.6790 166.9 21.8 1.79 171
2020 03 29 19  12 40 53.670   +09 19 25.89  .69116 1.6791 166.9 21.8 1.85 171
2020 03 29 20  12 40 50.927   +09 19 39.53  .69132 1.6793 166.9 21.8 1.92 171
2020 03 29 21  12 40 48.185   +09 19 53.14  .69148 1.6794 166.9 21.8 1.98 170
2020 03 29 22  12 40 45.445   +09 20 06.71  .69164 1.6796 166.8 21.8 2.05 170
2020 03 29 23  12 40 42.705   +09 20 20.25  .69180 1.6797 166.8 21.8 2.12 170